Tracking 20376 objects as of 22-Feb-2020
HD Live streaming from Space Station
objects crossing your sky now
Track the group of recently launched Starlink satellites

STARLINK-1075

Track STARLINK-1075 now!
10-day predictions
STARLINK-1075 is classified as:


NORAD ID: 44958
Int'l Code: 2020-001AW
Perigee: 355.8 km
Apogee: 358.0 km
Inclination: 53.0 °
Period: 91.5 minutes
Semi major axis: 6727 km
RCS: Unknown
Launch date: January 7, 2020
Source: United States (US)
Launch site: AIR FORCE EASTERN TEST RANGE (AFETR)
aabbcc
Your satellite tracking list
Your tracking list is empty




NASA's NSSDC Master Catalog

Two Line Element Set (TLE):
1 44958U 20001AW  20053.58334491  .00013724  00000-0  10199-3 0  9990
2 44958  52.9959 165.5473 0001636   6.7510 209.0171 15.73206995  7337
Source of the keplerian elements: AFSPC